When you browse on this site, cookies collect data to enhance your experience and personalize the content and advertising you see.
Visit our Privacy Policy to learn more. By continuing to use the site, you agree to this use of cookies and data.
  • In Latvia
  • List of Countries
  • For 7 days
  • Water Temperature
  • Weather Map
  • Weather Widgets
  • user-avatar
    Login

    Hourly Weather Melenki

    Today, 5 June, Friday

    Time Temperature Precipitation Wind Pressure Humidity
    00:00 +10°C° 0 mm 3 mps 733 mmHg 96%
    01:00 +10°C° 0 mm 3 mps 734 mmHg 96%
    02:00 +9°C° 0 mm 2 mps 734 mmHg 97%
    03:00 +9°C° 0 mm 2 mps 734 mmHg 97%
    04:00 +9°C° 0 mm 3 mps 734 mmHg 97%
    05:00 +9°C° 0 mm 3 mps 734 mmHg 96%
    06:00 +11°C° 0 mm 3 mps 735 mmHg 90%
    07:00 +12°C° 0 mm 3 mps 735 mmHg 85%
    08:00 +14°C° 0 mm 3 mps 735 mmHg 79%
    09:00 +16°C° 0.2 mm 3 mps 735 mmHg 73%
    10:00 +17°C° 0.2 mm 3 mps 735 mmHg 67%
    11:00 +18°C° 0.2 mm 3 mps 735 mmHg 61%
    12:00 +19°C° 0.3 mm 3 mps 735 mmHg 60%
    13:00 +19°C° 0.3 mm 3 mps 736 mmHg 60%
    14:00 +19°C° 0.3 mm 3 mps 736 mmHg 60%
    15:00 +19°C° 0.3 mm 3 mps 736 mmHg 65%
    16:00 +18°C° 0.3 mm 3 mps 736 mmHg 71%
    17:00 +17°C° 0.3 mm 3 mps 736 mmHg 77%
    18:00 +16°C° 0 mm 2 mps 736 mmHg 83%
    19:00 +14°C° 0 mm 2 mps 736 mmHg 89%
    20:00 +13°C° 0 mm 2 mps 736 mmHg 96%
    21:00 +12°C° 0 mm 2 mps 736 mmHg 96%
    22:00 +10°C° 0 mm 2 mps 736 mmHg 97%
    23:00 +10°C° 0 mm 2 mps 737 mmHg 98%

    Tomorrow, 6 June, Saturday

    Time Temperature Precipitation Wind Pressure Humidity
    00:00 +9°C° 0 mm 2 mps 737 mmHg 98%
    01:00 +9°C° 0 mm 2 mps 737 mmHg 98%
    02:00 +10°C° 0 mm 1 mps 738 mmHg 98%
    03:00 +9°C° 0 mm 2 mps 738 mmHg 98%
    04:00 +10°C° 0 mm 2 mps 738 mmHg 97%
    05:00 +10°C° 0 mm 2 mps 738 mmHg 97%
    06:00 +13°C° 0 mm 2 mps 738 mmHg 90%
    07:00 +14°C° 0 mm 3 mps 738 mmHg 82%
    08:00 +17°C° 0 mm 3 mps 738 mmHg 75%
    09:00 +19°C° 0 mm 4 mps 738 mmHg 71%
    10:00 +20°C° 0 mm 4 mps 738 mmHg 66%
    11:00 +22°C° 0 mm 5 mps 738 mmHg 61%
    12:00 +22°C° 0.7 mm 5 mps 738 mmHg 70%
    13:00 +21°C° 0.7 mm 5 mps 738 mmHg 78%
    14:00 +21°C° 0.7 mm 5 mps 738 mmHg 86%
    15:00 +21°C° 0.6 mm 4 mps 738 mmHg 88%
    16:00 +20°C° 0.6 mm 3 mps 738 mmHg 89%
    17:00 +19°C° 0.6 mm 3 mps 738 mmHg 91%
    18:00 +19°C° 0.4 mm 3 mps 738 mmHg 93%
    19:00 +18°C° 0.4 mm 2 mps 738 mmHg 94%
    20:00 +18°C° 0.4 mm 2 mps 739 mmHg 96%
    21:00 +17°C° 0 mm 2 mps 739 mmHg 96%
    22:00 +16°C° 0 mm 2 mps 740 mmHg 97%
    23:00 +15°C° 0 mm 2 mps 740 mmHg 97%

    Day after tomorrow, 7 June, Sunday

    Time Temperature Precipitation Wind Pressure Humidity
    00:00 +15°C° 0 mm 2 mps 741 mmHg 97%
    01:00 +14°C° 0 mm 2 mps 742 mmHg 97%
    02:00 +14°C° 0 mm 2 mps 742 mmHg 97%
    03:00 +14°C° 0 mm 1 mps 743 mmHg 96%
    04:00 +14°C° 0 mm 1 mps 743 mmHg 95%
    05:00 +14°C° 0 mm 1 mps 744 mmHg 95%
    06:00 +16°C° 0 mm 1 mps 744 mmHg 87%
    07:00 +19°C° 0 mm 1 mps 745 mmHg 79%
    08:00 +21°C° 0 mm 1 mps 745 mmHg 71%
    09:00 +23°C° 0 mm 1 mps 745 mmHg 63%
    10:00 +24°C° 0 mm 1 mps 746 mmHg 55%
    11:00 +26°C° 0 mm 1 mps 746 mmHg 47%
    12:00 +26°C° 0 mm 1 mps 746 mmHg 46%
    13:00 +26°C° 0 mm 1 mps 746 mmHg 45%
    14:00 +27°C° 0 mm 1 mps 746 mmHg 44%
    15:00 +26°C° 0 mm 1 mps 746 mmHg 49%
    16:00 +26°C° 0 mm 2 mps 745 mmHg 55%
    17:00 +25°C° 0 mm 2 mps 745 mmHg 60%
    18:00 +24°C° 0 mm 2 mps 745 mmHg 67%
    19:00 +21°C° 0 mm 2 mps 745 mmHg 74%
    20:00 +19°C° 0 mm 2 mps 745 mmHg 81%
    21:00 +18°C° 0 mm 2 mps 745 mmHg 83%
    22:00 +18°C° 0 mm 2 mps 745 mmHg 85%
    23:00 +17°C° 0 mm 2 mps 745 mmHg 86%

    8 June, Monday

    Time Temperature Precipitation Wind Pressure Humidity
    00:00 +17°C° 0 mm 2 mps 745 mmHg 90%
    01:00 +16°C° 0 mm 2 mps 745 mmHg 93%
    02:00 +16°C° 0 mm 2 mps 745 mmHg 96%
    03:00 +17°C° 0 mm 2 mps 745 mmHg 95%
    04:00 +18°C° 0 mm 2 mps 745 mmHg 94%
    05:00 +18°C° 0 mm 2 mps 745 mmHg 93%
    06:00 +20°C° 0 mm 2 mps 745 mmHg 87%
    07:00 +21°C° 0 mm 2 mps 745 mmHg 82%
    08:00 +24°C° 0 mm 2 mps 745 mmHg 77%
    09:00 +25°C° 0 mm 2 mps 746 mmHg 70%
    10:00 +27°C° 0 mm 2 mps 746 mmHg 63%
    11:00 +28°C° 0 mm 2 mps 746 mmHg 56%
    12:00 +29°C° 0 mm 2 mps 746 mmHg 55%
    13:00 +29°C° 0 mm 2 mps 745 mmHg 54%
    14:00 +29°C° 0 mm 2 mps 745 mmHg 52%
    15:00 +29°C° 0 mm 2 mps 745 mmHg 55%
    16:00 +29°C° 0 mm 2 mps 745 mmHg 59%
    17:00 +28°C° 0 mm 2 mps 745 mmHg 62%
    18:00 +26°C° 0 mm 2 mps 745 mmHg 70%
    19:00 +25°C° 0 mm 2 mps 745 mmHg 79%
    20:00 +23°C° 0 mm 1 mps 745 mmHg 87%
    21:00 +22°C° 0 mm 1 mps 745 mmHg 89%
    22:00 +21°C° 0 mm 1 mps 745 mmHg 92%
    23:00 +20°C° 0 mm 1 mps 745 mmHg 94%

    9 June, Tuesday

    Time Temperature Precipitation Wind Pressure Humidity
    00:00 +20°C° 0 mm 1 mps 745 mmHg 95%
    01:00 +20°C° 0 mm 1 mps 745 mmHg 95%
    02:00 +19°C° 0 mm 1 mps 745 mmHg 95%
    03:00 +20°C° 0 mm 1 mps 746 mmHg 93%
    04:00 +20°C° 0 mm 1 mps 746 mmHg 92%
    05:00 +21°C° 0 mm 1 mps 746 mmHg 90%
    06:00 +22°C° 0 mm 1 mps 746 mmHg 83%
    07:00 +24°C° 0 mm 1 mps 746 mmHg 77%
    08:00 +26°C° 0 mm 1 mps 746 mmHg 70%
    09:00 +27°C° 0 mm 1 mps 746 mmHg 64%
    10:00 +28°C° 0 mm 2 mps 746 mmHg 59%
    11:00 +29°C° 0 mm 2 mps 746 mmHg 53%
    12:00 +30°C° 0 mm 2 mps 746 mmHg 52%
    13:00 +30°C° 0 mm 2 mps 746 mmHg 52%
    14:00 +30°C° 0 mm 2 mps 746 mmHg 51%
    15:00 +29°C° 0.3 mm 2 mps 746 mmHg 57%
    16:00 +29°C° 0.3 mm 2 mps 745 mmHg 64%
    17:00 +28°C° 0.3 mm 2 mps 745 mmHg 70%
    18:00 +26°C° 0.1 mm 2 mps 745 mmHg 76%
    19:00 +25°C° 0.1 mm 1 mps 745 mmHg 83%
    20:00 +23°C° 0.1 mm 1 mps 745 mmHg 89%
    21:00 +22°C° 0 mm 1 mps 745 mmHg 91%
    22:00 +22°C° 0 mm 1 mps 746 mmHg 92%
    23:00 +21°C° 0 mm 1 mps 746 mmHg 94%

    10 June, Wednesday

    Time Temperature Precipitation Wind Pressure Humidity
    00:00 +20°C° 0 mm 1 mps 746 mmHg 95%
    01:00 +20°C° 0 mm 1 mps 746 mmHg 95%
    02:00 +20°C° 0 mm 1 mps 746 mmHg 96%
    03:00 +20°C° 0 mm 1 mps 746 mmHg 94%
    04:00 +21°C° 0 mm 1 mps 746 mmHg 93%
    05:00 +21°C° 0 mm 1 mps 746 mmHg 92%
    06:00 +23°C° 0 mm 1 mps 746 mmHg 85%
    07:00 +25°C° 0 mm 1 mps 746 mmHg 78%
    08:00 +26°C° 0 mm 1 mps 746 mmHg 72%
    09:00 +27°C° 0.2 mm 1 mps 746 mmHg 67%
    10:00 +28°C° 0.2 mm 2 mps 746 mmHg 62%
    11:00 +29°C° 0.2 mm 2 mps 746 mmHg 57%
    12:00 +29°C° 0.1 mm 2 mps 746 mmHg 58%
    13:00 +29°C° 0.1 mm 3 mps 746 mmHg 60%
    14:00 +29°C° 0.1 mm 3 mps 746 mmHg 61%
    15:00 +28°C° 0.2 mm 3 mps 746 mmHg 64%
    16:00 +28°C° 0.2 mm 3 mps 746 mmHg 67%
    17:00 +27°C° 0.2 mm 3 mps 745 mmHg 70%
    18:00 +26°C° 0 mm 2 mps 745 mmHg 76%
    19:00 +24°C° 0 mm 2 mps 746 mmHg 82%
    20:00 +23°C° 0 mm 2 mps 746 mmHg 89%
    21:00 +21°C° 0.1 mm 2 mps 746 mmHg 91%
    22:00 +20°C° 0.1 mm 2 mps 746 mmHg 93%
    23:00 +20°C° 0.1 mm 2 mps 746 mmHg 95%
    Show more